Home   Weather   Hilo   Past weeks
Flag for USA

Past Weather in Hilo, Hawaii, USA — Yesterday and Last 2 Weeks

Now
67 °F

Heavy rain. Fog.


Feels Like: 67 °F
Forecast: 79 / 69 °F
Wind: 14 mph from North

Location: Hilo International Airport

Current Time: Feb 19, 2019 at 9:44:41 pm

Latest Report: Feb 19, 2019 at 8:53 pm


Visibility: 3 mi

Pressure: 29.99 "Hg

Humidity: 97%

Dew Point: 66 °F

Location of HiloLocation

Past Weather in Hilo — Graph

°F

Hilo Temperature Yesterday

Maximum temperature yesterday: 79 °F (at 1:53 pm)
Minimum temperature yesterday: 61 °F (at 4:53 am)
Average temperature yesterday: 71 °F

High & Low Weather Summary for the Past Weeks

 TemperatureHumidityPressure
High84 °F (Feb 6, 2:53 pm)100% (Feb 19, 6:19 am)30.00 "Hg (Feb 19, 6:19 am)
Low57 °F (Feb 14, 7:00 am)40% (Feb 10, 10:53 am)29.60 "Hg (Feb 10, 3:53 pm)
Average69 °F74%29.88 "Hg
* Reported Feb 4 7:14 pm — Feb 19 7:53 pm, Hilo. Weather by CustomWeather, © 2019

Note: Actual official high and low records may vary slightly from our data, if they occured in-between our weather recording intervals... More about our weather records

Advertising

Hilo Weather History for the Previous 24 Hours

Scroll right to see more
 ConditionsComfort  
Time TempWeatherWind HumidityBarometerVisibility
7:53 pm
Tue, Feb 19
68 °FLight rain. Fog.20 mph90%29.94 "Hg5 mi
6:53 pm68 °FRain. Fog.20 mph90%29.91 "Hg2 mi
6:38 pm68 °FRain. Fog.20 mph90%29.92 "Hg2 mi
6:00 pm68 °FLight rain. Fog.20 mph88%29.90 "Hg5 mi
5:24 pm66 °FLight rain. Fog.20 mph100%29.91 "Hg2 mi
5:22 pm67 °FLight rain. Fog.17 mph97%29.91 "Hg3 mi
5:06 pm68 °FRain. Fog.22 mph94%29.90 "Hg1 mi
4:53 pm70 °FRain. Fog.17 mph97%29.90 "Hg2 mi
4:19 pm70 °FRain. Fog.5 mph100%29.89 "Hg2 mi
3:53 pm71 °FHeavy rain. Fog.7 mph96%29.86 "Hg1 mi
3:48 pm72 °FHeavy rain. Fog.6 mph94%29.87 "Hg1 mi
3:16 pm72 °FHeavy rain. Fog.3 mph94%29.87 "Hg2 mi
2:53 pm71 °FRain. Fog.3 mph96%29.86 "Hg2 mi
1:53 pm71 °FHeavy rain. Fog.6 mph96%29.87 "Hg1 mi
1:26 pm70 °FRain. Fog.No wind100%29.87 "Hg1 mi
1:10 pm70 °FLight rain. Fog.No wind100%29.87 "Hg2 mi
12:53 pm70 °FHeavy rain. Fog.5 mph97%29.87 "Hg1 mi
12:34 pm70 °FHeavy rain. Fog.6 mph100%29.88 "Hg1 mi
11:53 am69 °FHeavy rain. Fog.No wind100%29.88 "Hg1 mi
11:13 am70 °FHeavy rain. Fog.No wind94%29.90 "Hg2 mi
11:06 am70 °FHeavy rain. Fog.6 mph94%29.91 "Hg2 mi
11:00 am69 °FLight rain. Fog.5 mph96%29.90 "Hg5 mi
9:53 am69 °FLight rain. Fog.7 mph96%29.90 "Hg2 mi
9:31 am68 °FLight rain. Fog.6 mph94%29.92 "Hg3 mi
8:53 am67 °FLight rain. Fog.3 mph97%29.92 "Hg1 mi
8:44 am66 °FLight rain. Fog.No wind100%29.92 "Hg1 mi
8:01 am66 °FHeavy rain. Fog.5 mph100%29.92 "Hg1 mi
7:03 am66 °FLight rain. Fog.7 mph100%29.91 "Hg3 mi
6:53 am67 °FLight rain. Fog.6 mph97%29.90 "Hg3 mi
6:45 am66 °FRain. Fog.3 mph100%29.91 "Hg2 mi
6:27 am66 °FLight rain. Fog.3 mph100%29.93 "Hg3 mi
6:19 am66 °FHeavy rain. Fog.5 mph100%29.93 "Hg1 mi
5:53 am67 °FLight rain. Fog.3 mph97%29.91 "Hg2 mi
5:31 am66 °FLight rain. Fog.5 mph94%29.91 "Hg3 mi
10:59 pm
Mon, Feb 18
69 °FRain. Fog.7 mph90%29.96 "Hg2 mi
10:28 pm68 °FRain. Fog.3 mph88%29.99 "Hg4 mi
9:53 pm69 °FLight rain. Mostly cloudy.5 mph90%29.98 "Hg7 mi
9:31 pm70 °FRain. Fog.6 mph88%29.97 "Hg2 mi
Weather by CustomWeather, © 2019

See weather overview